Regional Weather Roundup
Issued by NWS

Home | Current Version | Previous Version | Graphics & Text | Print | Product List | Glossary On
Versions: 1 2 3 4 5 6 7 8 9 10 11 12 13 14 15 16 17 18 19 20 21 22 23 24 25 26 27 28 29 30 31 32 33 34 35 36 37 38 39 40 41 42 43 44 45 46 47 48 49 50
000
ASUS43 KFSD 240110
RWRSD

WEATHER ROUNDUP FOR SOUTH DAKOTA
NATIONAL WEATHER SERVICE SIOUX FALLS SD
800 PM CDT THU MAR 23 2017

NOTE: "FAIR" INDICATES FEW OR NO CLOUDS BELOW 12,000 FEET WITH NO
SIGNIFICANT WEATHER AND/OR OBSTRUCTIONS TO VISIBILITY.


SDZ001>005-009-010-012>017-240200-
NORTHWEST AND NORTH CENTRAL SOUTH DAKOTA

CITY           SKY/WX    TMP DP  RH WIND       PRES   REMARKS
BUFFALO          N/A     43  42  97 SW3       29.81R
FAITH            N/A     46  39  76 N16       29.81R
MOBRIDGE       CLOUDY    44  36  73 N15       29.75R
$$

SDZ012>016-024>037-041>051-057-063-072>074-240200-
SOUTHWEST AND SOUTH CENTRAL SOUTH DAKOTA

CITY           SKY/WX    TMP DP  RH WIND       PRES   REMARKS
RAPID CTY ARPT CLOUDY    45  39  79 N21G29    29.84R
PIERRE         CLOUDY    53  40  61 N13       29.70R
CUSTER         CLOUDY    39  33  79 N10G17    29.82R
ELLSWORTH AFB  CLOUDY    46  41  83 N17       29.84
PHILIP         CLOUDY    53  41  63 N16       29.76R
PINE RIDGE     LGT RAIN  49  43  80 N22G32    29.75R
SPEARFISH      LGT RAIN  39  39 100 N14G20    29.90R
WINNER         FAIR      54  46  74 E9        29.67R
$$

SDZ004>011-016>023-039-040-240200-
NORTHEAST SOUTH DAKOTA

CITY           SKY/WX    TMP DP  RH WIND       PRES   REMARKS
ABERDEEN       CLOUDY    39  34  82 N8        29.77R
WATERTOWN      FOG       38  37  97 N6        29.73R VSB 1
SISSETON         N/A     36  36 100 CALM      29.78R
$$

SDZ017-020-022-023-036>040-048>070-240200-
SOUTHEAST SOUTH DAKOTA

CITY           SKY/WX    TMP DP  RH WIND       PRES   REMARKS
SIOUX FALLS    LGT RAIN  47  41  80 E5        29.69R
HURON          CLOUDY    43  43 100 NE7       29.72R FOG
CHAMBERLAIN    MOCLDY    48  47  97 NE6       29.69R
MITCHELL       CLOUDY    49  46  90 N5        29.70R
YANKTON        CLOUDY    54  48  82 NE6       29.64S
$$

ABBREVIATIONS USED IN REMARKS
   TC - TEMPERATURE IN CELSIUS
  WCI - WIND CHILL INDEX
   HX - HEAT INDEX
  VSB - VISIBILITY





USA.gov is the U.S. government's official web portal to all federal, state and local government web resources and services.